Flag for South Africa Weather past 2 weeks in Durban, South Africa

Now
70 °F

Passing clouds.


Feels Like: 70 °F
Forecast: 62 / 82 °F
Wind: 14 mph from Northeast

Location: King Shaka International Airport

Current Time: Sep 22, 2014 at 8:47:43 PM

Latest Report: Sep 22, 2014 at 8:00 PM


Visibility: N/A

Pressure: 30.15 "Hg

Humidity: 78%

Dew point: 63 °F

Location of DurbanLocation

Historic Weather in Durban — Graph

°F

Durban temperature yesterday

Maximum temperature yesterday: 73 °F (at 3:00 PM)
Minimum temperature yesterday: 50 °F (at 2:00 AM)
Average temperature yesterday: 63 °F

Past Weeks' High & Low Weather Summary

 TemperatureHumidityPressure
High97 °F (Sep 15, 12:00 PM)94% (Sep 8, 2:00 AM)30.42 "Hg (Sep 8, 2:00 AM)
Low50 °F (Sep 21, 2:00 AM)27% (Sep 15, 12:00 PM)29.50 "Hg (Sep 18, 2:00 PM)
Average68 °F76%30.07 "Hg
* Reported Sep 7 7:00 PM — Sep 22 7:00 PM, Durban, Weather by CustomWeather, © 2014

Note: Actual official high and low records may vary slightly from our data, if they occured in-between our weather recording intervals... More about our weather records

Advertising

Durban weather history for previous 24 hours

 ConditionsComfort  
Time TempWeatherWind HumidityBarometerVisibility
7:00 PM
Sep 22
70 °FPassing clouds.15 mph83%30.15 "HgN/A
6:00 PM70 °FPassing clouds.15 mph83%30.12 "HgN/A
5:00 PM72 °FPassing clouds.16 mph78%30.12 "HgN/A
4:00 PM73 °FPartly sunny.17 mph74%30.12 "HgN/A
3:00 PM73 °FScattered clouds.20 mph74%30.12 "HgN/A
2:00 PM75 °FPassing clouds.17 mph69%30.12 "HgN/A
1:00 PM75 °FSunny.16 mph61%30.15 "Hg10 mi
12:00 PM73 °FPassing clouds.16 mph69%30.18 "HgN/A
11:00 AM73 °FPassing clouds.12 mph69%30.21 "HgN/A
10:00 AM73 °FPassing clouds.12 mph69%30.24 "HgN/A
9:00 AM73 °FPassing clouds.9 mph65%30.24 "HgN/A
8:00 AM70 °FPassing clouds.5 mph73%30.24 "HgN/A
7:00 AM63 °FSunny.1 mph83%30.24 "Hg10 mi
6:00 AM57 °FSunny.1 mph82%30.24 "Hg10 mi
5:00 AM57 °FSunny.1 mph82%30.24 "Hg10 mi
4:00 AM57 °FPassing clouds.1 mph88%30.21 "HgN/A
3:00 AM61 °FClear.3 mph77%30.24 "Hg10 mi
1:00 AM63 °FPartly cloudy.5 mph77%30.27 "HgN/A
12:00 AM64 °FPartly cloudy.3 mph78%30.27 "HgN/A
11:00 PM
Sep 21
64 °FPartly cloudy.3 mph78%30.27 "HgN/A
10:00 PM64 °FLight rain. Partly cloudy.2 mph78%30.27 "HgN/A
9:00 PM61 °FPassing clouds.1 mph83%30.27 "HgN/A
8:00 PM61 °FPassing clouds.1 mph77%30.27 "HgN/A
Weather by CustomWeather, © 2014

See weather overviewHow to use our weather pages